Theta_e
346 352 352 351 351 351 351 352 354 356 355 356 356 357 356 356 357 357 358 358 358 356 353 353 353 351 350 350 350 351 352 352 354 353 353 352 351 351 349 350 352 343 350
354 354 350 351 351 351 351 352 354 356 357 357 357 357 356 356 356 357 357 358 357 355 352 352 352 351 349 349 349 350 350 351 352 353 354 352 351 350 347 348 351 345 350
353 354 352 351 352 352 352 352 354 356 357 357 357 357 356 356 356 356 356 357 357 356 353 352 351 350 348 347 348 348 349 350 350 352 353 346 346 349 346 348 350 351 350
351 354 353 350 351 352 353 353 353 355 356 356 356 356 356 355 355 355 356 356 356 355 353 351 352 350 347 346 346 347 348 348 349 351 349 347 344 349 348 347 348 348 348
351 354 352 349 349 351 352 352 352 352 353 354 355 355 355 355 355 355 355 355 355 353 352 352 353 351 347 346 345 345 346 347 349 348 347 349 349 348 349 348 347 347 349
351 353 346 346 348 350 351 351 351 350 350 351 353 354 353 353 354 354 354 354 353 352 352 352 354 353 349 346 345 344 344 346 346 348 342 346 348 349 349 348 349 349 348
350 351 351 344 347 349 350 350 349 349 350 350 351 352 353 353 353 353 352 352 352 352 352 352 353 349 349 347 345 344 343 343 341 342 339 343 349 351 349 349 349 349 347
348 349 349 344 344 345 345 346 346 347 348 349 350 350 350 350 351 350 349 350 351 351 352 353 353 351 348 347 345 343 342 341 342 340 340 339 348 350 348 349 350 348 348
348 350 350 348 343 339 338 339 341 343 344 345 346 348 349 350 350 350 350 349 349 349 349 349 349 350 350 349 346 343 341 341 343 341 341 340 346 346 344 346 349 348 348
345 348 350 349 349 348 345 336 336 338 339 340 342 342 344 347 348 348 349 349 350 349 348 348 348 348 348 347 346 344 341 341 345 343 344 344 347 345 344 345 348 348 347
340 343 347 348 348 347 346 340 336 336 337 339 341 340 342 348 348 348 339 341 342 343 344 346 347 346 345 344 344 341 340 347 346 347 345 345 348 347 346 348 348 346 347
336 338 341 343 346 347 343 346 345 344 344 343 343 344 343 343 341 339 336 335 336 337 339 341 343 345 343 349 350 344 348 349 350 347 347 345 346 347 347 347 347 348 346
334 332 334 336 337 338 338 340 341 342 341 341 339 341 340 336 334 336 334 335 339 334 342 341 343 345 345 346 348 349 349 348 347 344 342 340 342 347 347 346 347 347 346
330 329 330 330 332 333 332 332 333 333 336 335 335 337 338 334 329 328 329 331 332 336 337 338 340 339 343 342 342 342 343 343 341 341 342 341 340 343 343 345 346 347 346
328 327 327 328 330 330 330 329 329 329 329 329 330 331 336 333 333 329 327 326 326 327 329 331 335 335 336 337 337 338 337 338 339 338 338 338 338 339 339 339 341 342 345
326 325 327 327 328 328 328 328 326 326 326 325 325 325 327 330 332 332 331 330 330 329 330 330 330 331 332 333 333 334 333 334 334 335 334 335 331 335 337 336 337 338 340
325 325 325 327 327 326 325 324 323 322 322 321 320 321 321 323 324 326 325 326 323 323 324 325 324 324 325 327 326 326 326 327 328 329 329 330 330 327 325 327 331 332 333
324 324 325 323 325 324 323 322 320 320 319 318 318 318 318 317 319 320 320 319 319 320 319 319 319 319 320 320 320 320 321 322 323 325 325 327 328 329 326 321 323 324 327
323 323 322 323 322 322 322 320 319 319 317 316 316 316 315 315 316 317 316 317 317 317 316 316 317 316 316 317 316 316 319 320 322 324 328 329 328 326 324 320 320 319 319
322 323 322 322 321 321 319 318 317 316 315 315 314 313 313 313 313 314 313 313 314 314 313 313 314 314 315 313 311 313 319 320 324 325 324 324 322 321 320 321 324 316 314
321 321 321 320 320 318 316 314 314 313 313 312 311 311 311 311 311 311 310 310 312 311 311 311 311 311 311 312 312 312 315 322 322 323 322 319 318 318 318 317 318 317 315
319 319 320 319 319 318 316 316 316 314 313 311 309 309 309 309 309 310 310 309 310 310 310 309 310 309 310 311 307 309 309 314 316 317 319 316 315 316 314 314 314 314 313
317 318 318 319 318 317 317 316 314 312 309 307 307 306 307 308 309 309 309 310 310 310 308 309 309 309 307 309 309 307 305 305 306 314 316 314 312 312 312 313 313 311 308
317 318 318 318 318 317 317 313 311 308 305 307 306 306 306 307 307 308 308 309 309 308 308 307 308 308 308 305 310 308 308 306 303 302 308 308 308 307 310 310 310 307 307
317 317 317 317 317 316 315 314 311 310 309 307 306 305 305 306 306 307 308 308 308 307 306 306 306 306 306 305 304 304 305 306 304 300 297 302 303 304 306 303 302 300 300
317 317 316 315 314 315 314 314 313 312 307 305 305 304 304 305 305 305 306 306 306 305 304 304 304 304 303 303 303 301 300 299 296 295 294 296 297 301 304 300 296 292 293
Wind_Speed
14 13 9 9 8 7 7 7 5 8 9 10 10 10 9 10 10 9 9 8 7 8 8 8 7 7 7 8 9 8 8 8 7 7 7 9 9 8 5 5 6 13 10
18 13 8 10 9 7 6 7 8 9 9 9 9 10 8 9 10 9 7 7 7 7 6 6 6 6 6 7 7 7 6 6 6 5 8 11 8 6 2 5 10 14 9
17 11 12 9 9 9 8 7 6 12 11 10 10 10 8 8 8 8 7 6 7 7 5 5 6 5 5 5 5 5 5 4 3 7 11 6 12 5 2 5 10 10 8
13 13 11 9 9 8 8 8 7 11 11 10 10 10 10 9 8 7 7 5 6 6 6 5 5 5 4 3 4 4 3 3 4 9 9 7 12 8 4 3 6 7 7
12 11 11 8 9 9 8 8 10 9 10 9 9 10 10 10 9 9 7 6 4 5 5 4 4 5 4 3 2 3 2 3 8 11 9 7 1 11 7 5 7 6 7
10 11 8 9 9 9 9 8 9 9 8 8 8 8 9 9 9 8 6 5 4 5 5 4 3 4 5 4 4 3 3 5 8 13 5 7 3 13 9 7 6 5 5
12 12 11 9 9 9 8 9 8 9 7 7 6 6 6 8 7 7 6 5 5 5 4 4 4 4 5 5 5 4 4 6 10 13 1 4 6 11 8 8 6 6 6
10 12 11 10 10 9 9 8 8 8 7 6 5 5 6 6 6 7 6 6 5 4 4 4 5 6 5 5 6 6 6 7 10 10 6 4 14 11 7 6 8 9 10
9 9 11 11 11 13 11 10 9 9 9 8 6 4 4 4 7 7 6 6 6 6 5 4 5 4 5 6 7 7 7 7 10 10 9 6 15 12 9 7 7 9 11
9 8 7 10 9 10 9 10 11 10 9 7 6 5 2 4 3 4 6 6 7 7 6 5 5 5 6 7 7 6 7 8 11 11 10 2 13 12 8 8 9 8 12
9 9 7 7 8 8 8 9 10 10 9 8 9 5 7 1 3 8 9 7 5 2 1 3 4 5 6 10 9 8 7 8 10 4 7 10 10 8 7 8 9 9 9
13 12 9 7 6 6 6 9 7 7 4 3 3 4 4 6 6 6 6 7 6 4 4 3 4 7 9 6 5 8 7 8 6 8 8 8 5 5 8 10 11 11 10
13 10 11 8 6 5 4 4 4 3 4 3 3 2 5 4 2 2 2 1 2 2 5 6 6 5 2 3 3 4 5 7 8 6 6 8 2 6 8 10 11 11 12
13 12 11 10 7 5 5 4 4 3 3 3 4 0 4 4 3 3 2 1 3 3 3 2 3 5 5 4 4 5 4 7 5 4 6 9 5 3 5 9 12 11 11
13 11 10 9 7 6 5 4 4 4 3 4 3 4 2 2 3 4 3 2 1 1 1 3 2 3 4 4 5 5 6 6 7 6 6 5 6 4 2 6 11 12 11
13 12 10 10 8 7 6 6 5 4 5 4 4 4 4 2 1 1 2 2 2 1 2 3 4 5 4 4 6 5 6 7 8 8 7 7 1 4 1 7 9 13 13
12 13 11 10 9 9 9 7 5 5 4 5 5 6 6 4 4 2 3 2 3 3 4 3 3 3 5 4 6 5 6 7 6 6 6 7 7 16 18 17 14 13 12
14 14 12 10 10 9 8 6 6 5 4 5 5 5 6 5 4 3 3 3 4 3 4 4 4 5 4 4 5 5 5 5 5 6 6 4 5 6 10 12 17 17 17
15 14 13 12 12 10 9 7 7 6 4 5 4 4 6 5 5 3 4 4 3 3 3 4 4 4 5 5 6 6 5 5 4 3 6 8 8 6 7 8 12 18 21
15 15 14 12 12 12 9 8 7 5 4 4 4 4 5 5 4 3 5 4 2 3 4 5 4 4 3 6 8 6 4 3 2 2 5 4 7 7 9 9 5 11 18
16 16 16 15 14 11 9 9 8 7 6 5 5 5 5 5 5 4 4 4 3 5 5 4 3 1 2 6 6 5 4 4 1 2 5 8 9 7 8 8 7 6 6
17 16 17 16 16 12 9 8 7 7 6 6 5 5 5 5 5 5 4 4 3 4 4 4 4 3 3 6 5 5 2 5 3 2 3 3 4 3 3 6 8 9 9
18 18 17 17 17 14 12 8 7 7 6 5 7 6 5 5 5 5 5 4 5 3 4 5 5 6 4 4 6 4 3 2 5 8 5 8 6 5 8 7 3 7 8
17 16 17 17 17 15 14 12 14 10 9 7 7 6 6 6 6 5 5 5 5 5 5 5 5 5 5 4 2 3 3 4 4 4 4 6 9 9 9 9 12 11 12
17 16 15 16 16 15 14 14 12 12 7 8 7 10 8 7 6 6 6 5 6 5 6 6 6 6 5 4 4 4 4 3 4 2 6 6 7 7 8 9 10 11 11
16 16 15 16 16 16 15 15 15 13 12 10 10 9 8 7 6 6 6 6 6 6 5 5 5 7 6 5 4 5 5 4 3 2 3 6 6 4 6 7 8 9 9
Wind_Direction
119 112 107 113 108 107 108 102 103 125 140 143 143 138 143 138 134 129 127 126 126 128 117 106 101 94 89 81 78 76 78 82 83 109 112 109 107 115 147 174 194 113 123
112 117 121 125 125 119 109 110 120 116 121 129 135 137 142 138 138 138 137 134 134 137 130 121 114 110 97 90 86 87 89 97 111 135 136 128 118 126 137 41 316 109 112
114 130 144 134 130 130 131 116 104 115 124 131 132 136 137 137 136 137 143 147 145 148 145 132 122 114 107 95 95 98 101 102 150 201 193 172 119 134 111 73 76 107 115
136 143 140 133 134 136 120 112 110 119 122 127 127 129 134 138 141 144 149 155 155 153 162 152 141 131 119 111 95 85 93 128 232 254 236 216 123 140 148 112 111 124 134
138 121 106 133 129 129 126 122 122 109 111 118 127 138 142 144 152 153 156 158 165 164 170 173 165 149 152 158 148 140 155 205 240 257 237 58 26 140 155 163 161 161 195
123 113 109 115 122 125 130 126 122 116 118 125 128 138 146 148 152 153 156 163 174 185 183 201 156 169 183 197 199 197 203 237 267 254 79 113 85 145 150 185 272 199 190
122 127 125 109 107 114 120 120 124 121 131 130 131 136 150 154 157 160 166 177 189 205 211 222 186 198 204 209 223 230 244 262 275 302 246 196 130 145 162 188 217 198 190
129 123 124 108 97 91 94 99 104 109 115 119 132 151 165 164 167 173 181 193 205 235 248 228 231 217 229 232 241 250 251 265 276 267 267 259 127 143 176 206 212 210 198
135 136 142 138 116 88 74 80 85 94 92 86 89 125 143 158 182 181 188 195 208 210 228 241 277 278 249 245 251 254 258 262 282 289 292 261 148 150 175 223 234 230 214
141 145 146 149 151 138 120 93 89 88 86 85 90 110 131 144 165 182 194 192 208 210 218 224 239 247 256 260 255 262 274 271 257 267 270 286 139 152 175 220 237 250 225
150 145 149 152 142 139 139 127 125 122 134 137 134 138 189 130 138 122 61 76 77 107 177 242 235 237 242 244 235 230 248 254 254 260 254 146 157 162 185 219 234 241 239
158 153 148 150 147 163 149 163 148 148 140 123 94 143 84 62 58 76 79 89 96 100 128 160 207 226 229 264 222 209 243 269 287 278 288 151 158 233 251 248 233 232 236
157 151 145 143 151 182 122 172 179 165 149 121 95 82 109 104 59 86 85 67 165 206 200 189 190 215 259 304 278 254 256 258 235 248 305 107 174 328 321 307 295 275 239
166 154 150 143 145 148 169 180 145 146 148 123 67 224 136 131 109 87 56 49 340 3 353 330 2 340 292 293 293 286 273 291 347 321 111 113 132 70 349 316 313 306 295
172 154 152 145 146 145 169 125 110 142 99 99 99 46 17 158 143 153 144 136 154 104 313 299 278 263 276 276 287 292 289 302 303 305 309 77 66 38 356 334 315 306 308
167 163 156 153 149 152 118 126 121 108 131 100 80 51 69 38 43 134 166 160 155 333 343 305 356 314 304 300 281 281 299 297 295 301 299 311 216 204 23 19 6 339 326
171 163 167 148 150 143 135 136 115 118 121 108 99 74 66 26 77 31 49 31 15 18 298 312 311 285 273 278 282 284 284 274 285 304 304 297 312 77 60 41 38 21 353
182 170 164 157 153 152 132 136 123 127 125 114 108 94 69 64 45 66 72 42 8 15 353 354 354 336 321 316 308 299 312 309 308 302 274 320 334 336 78 62 49 42 30
184 175 170 164 157 149 144 130 120 134 131 113 113 104 85 71 57 60 56 47 346 28 30 357 347 353 323 326 310 295 283 279 295 315 14 34 42 10 356 77 91 61 44
180 178 173 171 156 155 149 144 140 134 140 125 112 87 105 84 77 98 91 56 19 41 53 12 355 352 320 336 312 294 283 293 354 37 88 66 62 31 19 14 359 72 52
186 184 180 174 167 167 165 165 160 160 151 133 118 116 106 95 85 81 89 88 73 53 45 19 337 329 19 352 276 347 256 129 98 33 61 32 10 29 29 10 8 34 64
194 193 186 180 175 183 178 175 171 151 160 138 124 110 99 98 93 95 95 85 43 100 60 41 26 330 55 29 356 273 261 163 121 127 104 140 73 346 23 11 4 15 20
203 198 195 187 180 188 177 156 141 129 134 159 153 146 117 109 99 104 99 95 98 73 76 50 28 31 24 58 32 355 308 343 336 157 156 79 13 332 327 337 355 36 27
212 203 203 193 185 188 175 166 166 170 174 177 163 133 131 124 113 104 98 100 87 84 76 69 50 36 348 38 127 45 26 10 340 309 22 354 10 340 336 11 47 28 15
199 208 209 201 193 186 180 178 175 190 162 148 149 157 143 135 127 116 110 101 93 86 73 64 58 47 54 25 32 1 32 56 64 292 288 352 330 344 35 45 35 25 16
197 202 207 207 204 187 189 192 188 185 160 167 165 168 161 147 137 121 107 93 90 92 74 69 66 50 53 47 57 37 30 5 41 335 302 308 322 338 47 55 41 29 21